Date_and_time,latitude,longitude,wind_speed,RelWindDirFrom,WindDirFrom,air_pressure,air_temperature,relative_humidity,Temp,platform_speed_wrt_ground,air_pressure_at_mean_sea_level,platform_orientation
2019-01-05 23:50,50.6304516666667,-96.980765,5.9,7.4,4,995.02,-8.5,89,0.75,0.0,1023.95,38.0
2019-01-06 00:00,50.6304516666667,-96.9807633333333,6.0,8.1,5,995.05,-8.5,87,0.75,0.0,1024.01,360.0
2019-01-06 00:10,50.6304516666667,-96.9807633333333,6.7,8.6,8,995.05,-8.5,88,0.75,0.0,1024.02,360.0
2019-01-06 00:20,50.6304533333333,-96.980765,5.6,8.4,11,995.17,-8.4,88,0.75,0.0,1024.15,360.0
2019-01-06 00:30,50.6304533333333,-96.9807733333333,4.8,5.7,15,995.30,-8.5,91,0.74,0.0,1024.28,360.0
2019-01-06 00:40,50.6304516666667,-96.980765,4.2,5.2,13,995.33,-8.4,91,0.72,0.0,1024.31,360.0
2019-01-06 00:50,50.6304533333333,-96.980765,3.2,4.7,8,995.42,-8.4,87,0.71,0.0,1024.40,360.0
2019-01-06 01:00,50.6304533333333,-96.9807683333333,4.5,5.6,35,995.54,-8.3,89,0.70,0.0,1024.53,49.4
2019-01-06 01:10,50.6304533333333,-96.98077,4.5,7.0,39,995.73,-8.4,90,0.69,0.0,1024.72,49.4
2019-01-06 01:20,50.630455,-96.9807683333333,7.7,10.9,45,995.90,-8.6,90,0.68,0.0,1024.90,49.4
2019-01-06 01:30,50.6304533333333,-96.98077,8.7,10.2,57,996.03,-9.1,90,0.67,0.0,1025.07,49.4
2019-01-06 01:40,50.6304516666667,-96.98077,8.5,10.0,58,996.08,-9.2,90,0.67,0.0,1025.13,49.4
2019-01-06 01:50,50.63045,-96.98077,8.6,10.0,54,996.11,-9.2,90,0.67,0.0,1025.16,49.4
2019-01-06 02:00,50.6304483333333,-96.9807666666667,7.6,9.2,56,996.23,-9.2,90,0.67,0.0,1025.28,142.0
2019-01-06 02:10,50.63045,-96.9807616666667,6.7,8.3,59,996.29,-9.2,90,0.67,0.0,1025.34,142.0
2019-01-06 02:20,50.63045,-96.980765,6.8,8.3,62,996.31,-9.2,90,0.66,0.0,1025.36,142.0
2019-01-06 02:30,50.63045,-96.980765,5.6,6.7,66,996.48,-9.1,90,0.66,0.0,1025.53,142.0
2019-01-06 02:40,50.63045,-96.980765,5.5,6.9,68,996.61,-9.1,90,0.66,0.0,1025.66,142.0
2019-01-06 02:50,50.6304516666667,-96.980765,4.9,5.8,66,996.73,-9.1,89,0.65,0.0,1025.78,142.0
2019-01-06 03:00,50.6304516666667,-96.980765,4.3,5.4,60,996.88,-9.0,90,0.65,0.0,1025.94,0.0
2019-01-06 03:10,50.63048,-96.9807733333333,4.9,5.9,49,996.98,-9.0,88,0.65,0.0,1026.05,0.0
2019-01-06 03:20,50.6304516666667,-96.98076,7.9,11.7,20,996.86,-9.4,91,0.65,0.0,1025.97,0.0
2019-01-06 03:30,50.6304533333333,-96.98076,10.4,12.5,12,996.83,-10.0,96,0.66,0.0,1025.99,0.0
2019-01-06 03:40,50.6304533333333,-96.9807633333333,11.2,13.2,16,996.99,-10.4,94,0.66,0.0,1026.17,0.0
2019-01-06 03:50,50.6304533333333,-96.9807633333333,10.2,12.5,17,997.03,-10.6,94,0.67,0.0,1026.22,0.0
2019-01-06 04:00,50.63045,-96.9807616666667,9.9,11.5,17,997.07,-10.7,92,0.67,0.0,1026.27,90.0
2019-01-06 04:10,50.6304516666667,-96.9807633333333,8.9,10.7,17,997.12,-10.7,92,0.66,0.0,1026.32,90.0
2019-01-06 04:20,50.6304533333333,-96.9807633333333,8.1,9.5,16,997.13,-10.7,92,0.66,0.0,1026.33,90.0
2019-01-06 04:30,50.630455,-96.980765,7.8,9.4,23,997.03,-10.7,93,0.66,0.0,1026.22,90.0
2019-01-06 04:40,50.630455,-96.9807633333333,8.1,10.1,14,997.10,-10.7,93,0.66,0.0,1026.29,90.0
2019-01-06 04:50,50.630455,-96.9807633333333,8.3,9.7,18,997.00,-10.8,93,0.66,0.0,1026.19,90.0
2019-01-06 05:00,50.6304783333333,-96.9807783333333,7.4,9.5,30,997.03,-10.8,94,0.67,0.0,1026.23,345.5
2019-01-06 05:10,50.63047,-96.9807733333333,8.0,9.7,27,997.08,-10.9,93,0.67,0.0,1026.30,345.5
2019-01-06 05:20,50.63047,-96.9807716666667,9.4,11.1,34,996.93,-10.9,94,0.67,0.0,1026.18,345.5
2019-01-06 05:30,50.6304516666667,-96.980765,9.5,11.5,38,996.98,-11.0,94,0.66,0.0,1026.26,345.5
2019-01-06 05:40,50.6304616666667,-96.9807733333333,8.6,10.3,44,997.19,-11.1,93,0.66,0.0,1026.49,345.5
2019-01-06 05:50,50.6304483333333,-96.9807283333333,9.1,11.0,41,997.28,-11.2,92,0.65,0.0,1026.59,345.5
2019-01-06 06:00,50.63045,-96.9807483333333,9.8,11.3,45,997.17,-11.2,91,0.64,0.0,1026.49,90.0
2019-01-06 06:10,50.630455,-96.980755,9.4,10.8,46,997.18,-11.2,92,0.64,0.0,1026.50,90.0
2019-01-06 06:20,50.63046,-96.9807716666667,9.8,11.7,44,997.04,-11.3,91,0.65,0.0,1026.36,90.0
2019-01-06 06:30,50.63046,-96.9807716666667,8.9,11.1,49,997.11,-11.2,92,0.67,0.0,1026.43,90.0
2019-01-06 06:40,50.63046,-96.9807683333333,9.3,10.6,50,997.13,-11.3,91,0.67,0.0,1026.45,90.0
2019-01-06 06:50,50.6304616666667,-96.98077,9.4,10.7,53,997.21,-11.4,91,0.67,0.0,1026.54,90.0
2019-01-06 07:00,50.6304716666667,-96.9807766666667,8.6,10.1,54,997.37,-11.4,91,0.67,0.0,1026.71,345.5
2019-01-06 07:10,50.6304683333333,-96.9807833333333,9.3,10.9,56,997.15,-11.4,91,0.68,0.0,1026.50,345.5
2019-01-06 07:20,50.6304633333333,-96.9807716666667,8.5,10.5,58,997.23,-11.5,91,0.68,0.0,1026.58,345.5
2019-01-06 07:30,50.6304616666667,-96.980765,8.4,9.8,54,997.19,-11.6,91,0.68,0.0,1026.55,345.5
2019-01-06 07:40,50.6304633333333,-96.98076,8.5,10.2,64,997.23,-11.6,91,0.67,0.0,1026.59,345.5
2019-01-06 07:50,50.6304616666667,-96.9807616666667,8.2,9.9,63,997.22,-11.6,91,0.67,0.0,1026.59,345.5
2019-01-06 08:00,50.6304616666667,-96.9807616666667,8.1,9.8,65,997.14,-11.6,91,0.68,0.0,1026.51,131.6
2019-01-06 08:10,50.630455,-96.9807533333333,8.2,9.6,62,997.18,-11.6,91,0.68,0.0,1026.55,131.6
2019-01-06 08:20,50.6304616666667,-96.98076,7.7,9.8,60,997.30,-11.7,91,0.67,0.0,1026.68,131.6
2019-01-06 08:30,50.6304616666667,-96.9807633333333,6.6,8.2,58,997.42,-11.7,91,0.68,0.0,1026.80,131.6
2019-01-06 08:40,50.6304633333333,-96.9807683333333,5.6,7.0,61,997.50,-11.7,91,0.68,0.0,1026.89,131.6
2019-01-06 08:50,50.6304633333333,-96.9807683333333,6.7,8.4,66,997.43,-11.6,92,0.68,0.0,1026.82,131.6
2019-01-06 09:00,50.6304616666667,-96.9807683333333,6.1,7.2,67,997.51,-11.6,92,0.68,0.0,1026.90,323.4
2019-01-06 09:10,50.6304533333333,-96.9807716666667,5.0,6.4,64,997.42,-11.6,91,0.68,0.0,1026.82,323.4
2019-01-06 09:20,50.6304516666667,-96.9807733333333,4.7,6.5,71,997.24,-11.6,92,0.67,0.0,1026.63,323.4
2019-01-06 09:30,50.6304533333333,-96.9807716666667,5.3,6.5,71,997.00,-11.5,93,0.67,0.0,1026.38,323.4
2019-01-06 09:40,50.6304516666667,-96.9807716666667,5.9,8.5,81,996.79,-11.3,94,0.68,0.0,1026.15,323.4
2019-01-06 09:50,50.6304766666667,-96.9807833333333,6.4,8.1,87,996.69,-11.1,94,0.69,0.0,1026.04,323.4
2019-01-06 10:00,50.6304683333333,-96.980775,6.4,9.7,86,996.48,-11.0,95,0.68,0.0,1025.82,360.0
2019-01-06 10:10,50.6304683333333,-96.9807733333333,7.6,9.4,88,996.19,-10.9,95,0.67,0.0,1025.51,360.0
2019-01-06 10:20,50.6304666666667,-96.9807716666667,7.0,9.2,89,996.03,-10.8,96,0.67,0.0,1025.34,360.0
2019-01-06 10:30,50.6304633333333,-96.9807716666667,6.9,9.3,93,996.04,-10.6,96,0.67,0.0,1025.35,360.0
2019-01-06 10:40,50.6304633333333,-96.9807716666667,8.3,11.0,111,996.09,-10.3,93,0.66,0.0,1025.38,360.0
2019-01-06 10:50,50.630445,-96.9807683333333,9.7,13.2,128,996.12,-10.5,90,0.67,0.0,1025.41,360.0
2019-01-06 11:00,50.630465,-96.9807833333333,9.0,11.5,129,995.99,-10.5,88,0.67,0.0,1025.29,286.8
2019-01-06 11:10,50.63046,-96.9807683333333,9.8,13.0,120,995.84,-10.6,88,0.66,0.0,1025.13,286.8
2019-01-06 11:20,50.630465,-96.9807616666667,10.6,13.1,118,995.76,-10.7,87,0.65,0.0,1025.05,286.8
2019-01-06 11:30,50.6304633333333,-96.9807616666667,10.3,13.9,126,995.73,-10.9,87,0.65,0.0,1025.02,286.8
2019-01-06 11:40,50.6304566666667,-96.980755,10.2,13.6,127,995.73,-11.0,88,0.65,0.0,1025.02,286.8
2019-01-06 11:50,50.6304616666667,-96.9807816666667,11.0,13.7,115,995.63,-10.8,89,0.65,0.0,1024.90,286.8
2019-01-06 12:00,50.63046,-96.9807733333333,12.3,15.0,117,995.56,-10.9,88,0.64,0.0,1024.82,192.6
2019-01-06 12:10,50.63046,-96.9807733333333,12.2,16.0,119,995.58,-11.0,88,0.65,0.0,1024.84,192.6
2019-01-06 12:20,50.6304483333333,-96.9807783333333,12.9,15.5,113,995.33,-11.1,88,0.65,0.0,1024.58,192.6
2019-01-06 12:30,50.630465,-96.9807633333333,13.4,15.8,115,995.01,-11.2,88,0.65,0.0,1024.24,192.6
2019-01-06 12:40,50.6304716666667,-96.9807683333333,13.9,16.6,108,994.77,-11.2,89,0.65,0.0,1024.01,192.6
2019-01-06 12:50,50.6304666666667,-96.9807716666667,14.6,17.4,115,994.73,-11.4,89,0.65,0.0,1023.98,192.6
2019-01-06 13:00,50.630465,-96.9807733333333,14.2,16.8,111,994.67,-11.5,90,0.65,0.0,1023.92,0.0
2019-01-06 13:10,50.6304633333333,-96.9807716666667,14.5,19.2,115,994.56,-11.6,91,0.64,0.0,1023.82,0.0
2019-01-06 13:20,50.6304633333333,-96.9807733333333,13.3,16.9,124,994.40,-11.8,92,0.64,0.0,1023.68,0.0
2019-01-06 13:30,50.6304633333333,-96.9807733333333,14.2,17.3,123,994.29,-11.9,93,0.64,0.0,1023.58,0.0
2019-01-06 13:40,50.6304616666667,-96.9807733333333,15.2,18.1,112,994.10,-12.0,94,0.65,0.0,1023.38,0.0
2019-01-06 13:50,50.630455,-96.9807666666667,16.3,18.8,108,993.98,-12.1,94,0.66,0.0,1023.26,0.0
2019-01-06 14:00,50.6304783333333,-96.9807833333333,15.8,18.7,106,993.71,-12.1,96,0.66,0.0,1022.99,360.0
2019-01-06 14:10,50.630465,-96.9807783333333,15.4,19.8,105,993.52,-12.1,97,0.67,0.0,1022.80,360.0
2019-01-06 14:20,50.6304566666667,-96.9807633333333,15.3,18.0,112,993.56,-11.9,97,0.67,0.0,1022.84,360.0
2019-01-06 14:30,50.6304533333333,-96.9807633333333,14.2,16.8,111,993.74,-11.8,97,0.67,0.0,1023.01,360.0
2019-01-06 14:40,50.6304516666667,-96.980765,12.5,15.5,116,993.84,-11.7,98,0.67,0.0,1023.12,360.0
2019-01-06 14:50,50.6304533333333,-96.9807683333333,12.5,14.9,123,993.84,-11.5,98,0.67,0.0,1023.12,360.0
2019-01-06 15:00,50.6304533333333,-96.98077,11.8,14.0,121,993.83,-11.4,98,0.67,0.0,1023.11,167.4
2019-01-06 15:10,50.6304533333333,-96.98077,12.1,14.3,115,993.68,-11.2,98,0.67,0.0,1022.96,167.4
2019-01-06 15:20,50.630455,-96.98077,12.5,14.8,120,993.53,-11.1,98,0.67,0.0,1022.80,167.4
2019-01-06 15:30,50.630455,-96.9807683333333,13.1,14.7,120,993.49,-11.0,98,0.68,0.0,1022.77,167.4
2019-01-06 15:40,50.630455,-96.98077,12.5,15.0,124,993.61,-11.0,97,0.68,0.0,1022.88,167.4
2019-01-06 15:50,50.6304533333333,-96.98077,11.2,14.5,129,993.59,-11.0,97,0.67,0.0,1022.87,167.4
2019-01-06 16:00,50.6304533333333,-96.98077,11.7,15.2,128,993.23,-10.8,96,0.66,0.0,1022.49,360.0
2019-01-06 16:10,50.6304633333333,-96.9807733333333,12.1,15.3,137,993.06,-11.1,96,0.65,0.0,1022.32,360.0
2019-01-06 16:20,50.630455,-96.9807766666667,12.2,15.8,140,992.77,-11.1,97,0.64,0.0,1022.01,360.0
2019-01-06 16:30,50.630455,-96.9807733333333,11.2,14.9,137,992.55,-10.9,98,0.64,0.0,1021.77,360.0
2019-01-06 16:40,50.630455,-96.9807733333333,12.8,15.6,142,992.51,-10.8,99,0.64,0.0,1021.71,360.0
2019-01-06 16:50,50.6304566666667,-96.9807716666667,12.4,15.5,138,992.28,-10.7,99,0.65,0.0,1021.46,360.0
2019-01-06 17:00,50.6304583333333,-96.9807733333333,11.0,15.2,126,991.85,-10.0,99,0.66,0.0,1020.98,165.5
2019-01-06 17:10,50.6304566666667,-96.98077,12.1,14.2,117,991.53,-9.7,99,0.67,0.0,1020.63,165.5
2019-01-06 17:20,50.6304583333333,-96.9807683333333,12.0,15.0,112,991.21,-9.6,99,0.66,0.0,1020.28,165.5
2019-01-06 17:30,50.6304566666667,-96.9807683333333,12.6,15.8,125,991.22,-9.4,99,0.67,0.0,1020.27,165.5
2019-01-06 17:40,50.6304283333333,-96.9807633333333,11.7,15.0,128,991.08,-9.3,99,0.66,0.0,1020.14,165.5
2019-01-06 17:50,50.6304183333333,-96.9807666666667,11.6,14.3,127,990.88,-9.1,98,0.66,0.0,1019.90,165.5
2019-01-06 18:00,50.6304133333333,-96.9807616666667,12.6,15.4,121,990.57,-8.8,98,0.68,0.0,1019.58,156.1
2019-01-06 18:10,50.6304583333333,-96.9807683333333,12.8,14.9,118,990.19,-8.6,98,0.68,0.0,1019.18,156.1
2019-01-06 18:20,50.6304566666667,-96.980765,13.6,16.4,119,989.89,-8.5,97,0.67,0.0,1018.85,156.1
2019-01-06 18:30,50.630455,-96.980765,13.0,15.9,115,989.47,-8.3,97,0.67,0.0,1018.40,156.1
2019-01-06 18:40,50.6304533333333,-96.9807816666667,13.5,16.2,117,989.09,-8.1,97,0.67,0.0,1017.99,156.1
2019-01-06 18:50,50.630455,-96.9807766666667,13.4,15.4,118,988.80,-8.0,96,0.67,0.0,1017.65,156.1
2019-01-06 19:00,50.6304583333333,-96.980775,12.9,16.3,115,988.57,-7.9,95,0.65,0.0,1017.40,347.4
2019-01-06 19:10,50.6304583333333,-96.9807733333333,13.6,16.5,112,988.27,-7.8,96,0.62,0.0,1017.07,347.4
2019-01-06 19:20,50.6304566666667,-96.9807733333333,13.3,15.6,116,988.22,-7.7,96,0.62,0.0,1017.01,347.4
2019-01-06 19:30,50.6304566666667,-96.9807733333333,14.3,16.7,116,987.87,-7.6,95,0.64,0.0,1016.64,347.4
2019-01-06 19:40,50.6304566666667,-96.9807716666667,13.6,16.3,115,987.63,-7.5,95,0.67,0.0,1016.37,347.4
2019-01-06 19:50,50.6304566666667,-96.9807716666667,13.3,16.3,118,987.51,-7.4,94,0.68,0.0,1016.23,347.4
2019-01-06 20:00,50.630455,-96.9807716666667,13.8,17.1,110,987.32,-7.3,93,0.68,0.0,1016.01,360.0
2019-01-06 20:10,50.6304566666667,-96.9807716666667,15.6,19.0,114,987.16,-7.3,92,0.68,0.0,1015.84,360.0
2019-01-06 20:20,50.6304366666667,-96.9807816666667,16.6,20.2,114,986.90,-7.3,89,0.68,0.0,1015.56,360.0
2019-01-06 20:30,50.6304566666667,-96.98076,15.6,18.4,118,986.92,-7.2,89,0.67,0.0,1015.57,360.0
2019-01-06 20:40,50.630455,-96.9807616666667,15.4,18.2,115,986.70,-7.2,87,0.68,0.0,1015.34,360.0
2019-01-06 20:50,50.6304566666667,-96.9807616666667,15.3,18.0,115,986.44,-7.1,86,0.68,0.0,1015.06,360.0
2019-01-06 21:00,50.6304633333333,-96.9807666666667,15.5,19.9,112,986.18,-7.1,87,0.70,0.0,1014.79,360.0
2019-01-06 21:10,50.6304583333333,-96.9807716666667,17.7,21.5,116,985.98,-7.1,85,0.71,0.0,1014.57,360.0
2019-01-06 21:20,50.6304533333333,-96.980775,16.7,20.4,117,985.79,-7.1,86,0.72,0.0,1014.38,360.0
2019-01-06 21:30,50.6304533333333,-96.9807733333333,16.7,20.3,112,985.44,-7.1,86,0.72,0.0,1014.01,360.0
2019-01-06 21:40,50.630455,-96.9807733333333,16.8,20.3,111,985.20,-7.2,88,0.72,0.0,1013.76,360.0
2019-01-06 21:50,50.6304583333333,-96.980775,16.2,19.6,113,985.03,-7.1,88,0.72,0.0,1013.58,360.0
2019-01-06 22:00,50.6304566666667,-96.9807733333333,16.6,20.2,114,984.80,-7.1,88,0.72,0.0,1013.34,360.0
2019-01-06 22:10,50.630455,-96.9807716666667,17.9,21.2,114,984.49,-7.1,87,0.71,0.0,1013.02,360.0
2019-01-06 22:20,50.6304566666667,-96.9807716666667,16.8,20.7,113,984.23,-7.2,89,0.71,0.0,1012.75,360.0
2019-01-06 22:30,50.630455,-96.98077,17.2,21.2,115,984.21,-7.2,89,0.71,0.0,1012.73,360.0
2019-01-06 22:40,50.6304516666667,-96.9807433333333,17.1,20.5,111,984.02,-7.2,90,0.71,0.0,1012.53,360.0
2019-01-06 22:50,50.6304583333333,-96.9807566666667,18.6,22.2,110,983.69,-7.2,90,0.71,0.0,1012.20,360.0
2019-01-06 23:00,50.6304566666667,-96.9807583333333,16.9,20.1,115,983.72,-7.1,90,0.72,0.0,1012.22,90.0
2019-01-06 23:10,50.6304633333333,-96.98076,17.7,21.6,113,983.48,-7.0,90,0.71,0.0,1011.97,90.0
2019-01-06 23:20,50.6304566666667,-96.9807533333333,17.0,20.1,114,983.38,-6.9,91,0.70,0.0,1011.86,90.0
2019-01-06 23:30,50.6304566666667,-96.9807566666667,16.9,20.9,112,983.22,-6.8,91,0.69,0.0,1011.70,90.0
